Back to catalog

CZ-4 DEB

AliveSSO
NORAD 26241·DEBRIS·🇨🇳 China

Launched Oct 14, 1999 from Taiyuan Satellite Launch Center

Loading…

Next Passes (next 24 hours)

TLE

FreshSource: Space-Track

Epoch: Sep 14, 2026, 07:53 UTC

1 26241U 99057EF  26257.32862450  .00000161  00000-0  68983-4 0  9993
2 26241  98.8955 280.2118 0109166 129.0972 298.4252 14.34683277384468

Track CZ-4 DEB in real time with AllMySat

Download on the App Store